STARLINK-31859, 59848

Orbit data source: Space-Track

STARLINK-31859, 59848 is a payload satellite owned by SpaceX/Seattle (US) in LEO that was launched on Thu, 23 May 2024 UTC via an FALCON 9 launch vehicle from the Air Force Eastern Test Range (AFETR). Payload-class satellites include a variety of spacecraft equipped with specific instruments for various scientific and technological missions. These include communications satellites like Starlink; space stations such as the ISS; scientific satellites like the Hubble; Earth observation satellites from companies like Planet Labs, Umbra, and HawkEye 360; GPS; miniature CubeSats for education and research; and military/defense satellites.

Loading next visibility...
Identifier
59848, 2024-097P
Orbit
LEO
Country
Flag of USUS
Related business
Manufacturer
SpaceX/Seattle
Mission
Operational Commercial Communications
Bus & Motor
STARLINK V2M, Unknown motor
Mass
730 kg wet, ~700 kg dry
Launch date (UTC)
2024-05-23 (2 years ago)
Launch vehicle
FALCON 9
Launch site
Air Force Eastern Test Range (AFETR)
Object type
Payload
Rocket body
Debris
Shape & HBR
Box + 2 Pan, 17.7 m
Radar Cross Section
33.884 m², Large (>1 m²)

Expand to show TLE details & history
Last TLE update: 2 days ago

TLE from 2 days ago
0 STARLINK-31859
1 59848U 24097P   26171.06512284  .00000066  00000-0  11931-4 0  9992
2 59848  43.0037  49.2853 0001041 281.7677  78.3058 15.27576258117657
Epoch: 2026-06-20T01:33Z
TLE epoch observation values (Epoch: 2026-06-20T01:33:46.613Z)
Latitude
-0°
Longitude
117.55597°
Altitude
482.691 km
Speed
7.626 km/s
True Right ascension
03h 17m 08s
True Declination
0° 00' 00"
Sunlit
Object was in daylight at epoch
Visualization orbit readout
Latitude
Unknown
Longitude
Unknown
Altitude
Unknown
Speed
Unknown
Apparent Right ascension
Unknown
Apparent Declination
Unknown
Sunlit
N/A
Visualization observer readout
Local Sidereal Time
21:29:53
Azimuth
Unknown
Elevation
Unknown
Doppler factor
Unknown
Orbital elements
Apogee altitude
485.719 km
Perigee altitude
484.29 km
Semi-major axis
6,863.142 km
Eccentricity
0.0001
Inclination
43.0037°
RAAN
49.2853°
Arg. of periapsis
281.7677°
True anomaly
78.31748°
Mean anomaly
78.3058°
Eccentric anomaly
78.31164°
Mean motion
3.81732 °/min
Orbital period
94.31 mins
BSTAR
0.000011931
Loading maneuver chart data...
Computing Atmospheric mass density...
Loading historical data...
Loading historical data...
Loading historical data...
Loading historical data...
Loading historical data...
Loading historical data...
Loading historical data...

Documentation

Showing up to 5 results
|